Regional Weather Roundup
Issued by NWS

Home | Current Version | Previous Version | Graphics & Text | Print | Product List | Glossary On
Versions: 1 2 3 4 5 6 7 8 9 10 11 12 13 14 15 16 17 18 19 20 21 22 23 24 25 26 27 28 29 30 31 32 33 34 35 36 37 38 39 40 41 42 43 44 45 46 47 48 49 50
000
ASUS43 KMKX 211000
RWRWI

WISCONSIN REGIONAL WEATHER ROUNDUP
NATIONAL WEATHER SERVICE MILWAUKEE/SULLIVAN WI
400 AM CST TUE FEB 21 2017

NOTE: "FAIR" INDICATES FEW OR NO CLOUDS BELOW 12,000 FEET WITH NO
SIGNIFICANT WEATHER AND/OR OBSTRUCTIONS TO VISIBILITY.

WIZ001-002-006>008-014>016-023>028-211100-
NORTHWEST WISCONSIN

CITY           SKY/WX    TMP DP  RH WIND       PRES   REMARKS
SUPERIOR ARPT  CLOUDY    37  34  89 W8G18     29.80R WCI  31
ASHLAND        MOCLDY    39  36  89 W17G23    29.78R WCI  30
HAYWARD        CLOUDY    38  34  85 W5        29.81S WCI  34
SIREN          CLOUDY    37  35  93 W6        29.84S WCI  32
CUMBERLAND     CLOUDY    36  34  93 W12       29.83F WCI  27
RICE LAKE      CLOUDY    38  36  92 W9        29.86S WCI  32
CHETEK         CLOUDY    38  37  93 W7        29.86R WCI  33
LADYSMITH      CLOUDY    41  40  97 W12       29.85R
EAU CLAIRE     CLOUDY    39  37  93 W10       29.86S WCI  32
MENOMONIE      CLOUDY    39  37  91 W7        29.88S WCI  34
NEW RICHMOND   CLOUDY    37  36  97 SW5       29.87F WCI  33
OSCEOLA        NOT AVBL
$$

WIZ003>005-009-010-017-018-211100-
NORTH CENTRAL WISCONSIN

CITY           SKY/WX    TMP DP  RH WIND       PRES   REMARKS
MANITOWISH WTR CLOUDY    42  42 100 W9G16     29.74R
ARBOR VITAE    MOCLDY    44  42  94 NW12G18   29.76R
WOODRUFF       MOCLDY    44  42  94 NW12G18   29.76R
RHINELANDER    MOCLDY    45  43  93 W12       29.77R
EAGLE RIVER    CLOUDY    45  44  97 W12       29.73R
LAND O LAKES   MOCLDY    45  43  92 W9G21     29.75R
PHILLIPS       CLOUDY    40  40  97 W6        29.80R
TOMAHAWK       CLOUDY    44  43  97 W10       29.79R
MEDFORD        CLOUDY    42  40  93 W13G20    29.82R
MERRILL        NOT AVBL
$$

WIZ029-030-035-036-043>047-211100-
CENTRAL WISCONSIN

CITY           SKY/WX    TMP DP  RH WIND       PRES   REMARKS
WAUSAU         CLOUDY    44  43  96 W13       29.81R
MOSINEE        CLOUDY    45  45 100 W13       29.84R
MARSHFIELD     CLOUDY    44  40  85 W14       29.84R
STEVENS POINT  CLOUDY    47  46  97 W7        29.82R
WAUPACA        CLOUDY    52  51  97 W13G20    29.81R
WAUTOMA        CLOUDY    50  46  86 W13       29.84R
WISC RAPIDS    CLOUDY    48  46  93 W12       29.86R
CAMP DOUGLAS   NOT AVBL
$$

WIZ011>013-019>022-031-037>040-048>050-211100-
NORTHEAST WISCONSIN

CITY           SKY/WX    TMP DP  RH WIND       PRES   REMARKS
ANTIGO         CLOUDY    44  44 100 W13       29.78R FOG
SHAWANO        CLOUDY    54  52  94 W8        29.78R FOG
OCONTO         CLOUDY    53  51  94 SW12      29.75R
STURGEON BAY   CLOUDY    44  43  96 S12       29.76R FOG
GREEN BAY      CLOUDY    52  52 100 SW12      29.77R
MANITOWOC      NOT AVBL
APPLETON       CLOUDY    52  52 100 SW13      29.78R
CLINTONVILLE   CLOUDY    52  48  87 W12       29.80R
OSHKOSH        MOCLDY    54  52  93 SW6       29.80R
$$

WIZ032>034-041-042-053>061-211100-
SOUTHWEST WISCONSIN

CITY           SKY/WX    TMP DP  RH WIND       PRES   REMARKS
LA CROSSE      MOCLDY    42  39  89 W8        29.91R
SPARTA         CLOUDY    44  42  92 CALM      29.91R
VIROQUA        CLOUDY    43  42  97 W9        29.91R
BOSCOBEL       CLOUDY    45  42  89 SW6       29.92R
PRAIRIE DU CHI CLOUDY    43  40  88 W8        29.92R
PLATTEVILLE    MOCLDY    47  47 100 W12       29.90R
$$

WIZ056-057-062-063-064-067-068-211100-
SOUTH CENTRAL WISCONSIN

CITY           SKY/WX    TMP DP  RH WIND       PRES   REMARKS
REEDSBURG      CLOUDY    47  46  97 W7        29.87R
BARABOO/DELLS  CLOUDY    49  45  85 W9        29.86R
LONE ROCK      NOT AVBL
MINERAL POINT  CLOUDY    46  46 100 W10       29.89R
MADISON        CLOUDY    54  52  93 SW5       29.85R
MIDDLETON        N/A     55  53  92 W12G17    29.86R
WATERTOWN      CLOUDY    53  53 100 SW7       29.84R
MONROE         CLOUDY    54  52  94 SW13      29.87R FOG
JANESVILLE     CLOUDY    55  54  94 SW10      29.86R
$$

WIZ051-052-058>065-066-070>072-211100-
SOUTHEAST WISCONSIN

CITY           SKY/WX    TMP DP  RH WIND       PRES   REMARKS
MILWAUKEE      CLOUDY    55  52  89 S9        29.83F
WAUKESHA       CLOUDY    52  52 100 SW7       29.86R FOG
MILWAUKEE/TIMM DRIZZLE   52  50  93 W14       29.85R
RACINE         LGT RAIN  54  50  86 S9        29.86F
KENOSHA        LGT RAIN  55  51  86 S13       29.84F
FOND DU LAC    CLOUDY    54  51  90 SW10      29.81S
SHEBOYGAN      FOG       45  44  97 S7        29.81S VSB 1/4
WEST BEND      CLOUDY    52  52 100 S7        29.83R FOG
JUNEAU         CLOUDY    53  52  99 SW10      29.84S FOG
$$

LSZ147-162-211100-
LAKE SUPERIOR

STATION/POSITION TIME  TEMP    WIND        PRES    WAVE
                       AIR SEA DIR/SP/G            HT/PER
                 (UTC) (F)     (DEG/KT/KT) (MB)    (FT/S)
DEVILS ISLAND    0900   38     240/ 29/ 33 1006.5R
PORT WING        0930   38     240/ 12/ 18 1008.8R
SAXON HARBOR     0930   42     220/  4/ 15 1007.8R
$$

LMZ867-665-643>646-211100-
LAKE MICHIGAN

STATION/POSITION TIME  TEMP    WIND        PRES    WAVE
                       AIR SEA DIR/SP/G            HT/PER
                 (UTC) (F)     (DEG/KT/KT) (MB)    (FT/S)
CHAMBERS ISLAND  0940   44     160/  9/ 18 1006.4S
NORTHPORT PIER   0940   43     170/  8/ 14 1007.1S
SISTER BAY       0850   43     180/ 19/ 24   N/A
KEWAUNEE LAKESHO 0930   38     200/ 12/ 16 1007.9F
SHEBOYGAN LAKESH 0900   40     180/ 21/ 23 1009.1F
PORT WASHINGTON  0940   44      CALM  / 10 1011.2S
MILWAUKEE LAKESH 0930   53     200/  7/  9   N/A
KENOSHA   LAKESH 0900   56     210/  5/  9 1011.9
$$

TC  - TEMPERATURE IN CELSIUS
VSB - VISIBILITY IN STATUTE MILES
WCI - WIND CHILL INDEX
HX  - HEAT INDEX




USA.gov is the U.S. government's official web portal to all federal, state and local government web resources and services.